Weather History for KIJD - November, 2012

Change the Weather History Date:

Wednesday, November 14, 2012

  Actual Average Record
Temperature  
Mean Temperature 38 °F -  
Max Temperature 48 °F 48 °F 69 °F (1964)
Min Temperature 28 °F 28 °F 11 °F (1986)
Degree Days  
Heating Degree Days 27    
Moisture  
Dew Point 25 °F    
Average Humidity 63    
Maximum Humidity 88    
Minimum Humidity 36    
Precipitation  
Precipitation 0.00 in - - ()
Sea Level Pressure  
Sea Level Pressure 30.48 in    
Wind  
Wind Speed 4 mph (NNE)    
Max Wind Speed 15 mph    
Max Gust Speed 20 mph    
Visibility 10 miles    
Events      
Averages and records for this station are not official NWS values.
T = Trace of Precipitation, MM = Missing Value Source: NWS Daily Summary

Daily Weather History Graph

Daily Weather History Graph

Search for Another Location

Airport or City:

Trip Planner

Search our weather history database for the weather conditions in past years. The results will help you decide how hot, cold, wet, or windy it might be!

Date:

Astronomy

Nov. 14, 2012 Rise Set
Actual Time 6:37 AM EST 4:28 PM EST
Civil Twilight 6:07 AM EST 4:58 PM EST
Nautical Twilight 5:33 AM EST 5:32 PM EST
Astronomical Twilight 5:01 AM EST 6:04 PM EST
Moon 7:24 AM EST (11/14) 5:13 PM EST (11/14)
Length of Visible Light 10h 51m
Length of Day
9h 51m
New Moon, 1% of the Moon is Illuminated
Nov 14
New Moon
Nov 20
First Quarter
Nov 28
Full
Dec 6
Last Quarter
Dec 13
New

Hourly Weather History & Observations

Time (EST) Temp. Windchill Dew Point Humidity Pressure Visibility Wind Dir Wind Speed Gust Speed Precip Events Conditions
12:52 AM 33.1 °F - 28.0 °F 82% 30.44 in 10.0 mi Calm Calm - N/A   Clear
1:52 AM 32.0 °F - 28.9 °F 88% 30.45 in 10.0 mi Calm Calm - N/A   Scattered Clouds
2:52 AM 35.1 °F - 28.9 °F 78% 30.45 in 10.0 mi Calm Calm - N/A   Overcast
3:52 AM 36.0 °F 32.1 °F 28.0 °F 73% 30.46 in 10.0 mi North 4.6 mph - N/A   Overcast
4:52 AM 37.0 °F 33.3 °F 27.0 °F 67% 30.48 in 10.0 mi North 4.6 mph - N/A   Overcast
5:52 AM 36.0 °F 30.3 °F 27.0 °F 70% 30.49 in 10.0 mi North 6.9 mph - N/A   Overcast
6:52 AM 36.0 °F 31.1 °F 28.0 °F 73% 30.51 in 10.0 mi North 5.8 mph - N/A   Overcast
7:52 AM 37.9 °F 31.5 °F 26.1 °F 62% 30.52 in 10.0 mi NNE 9.2 mph - N/A   Overcast
8:52 AM 39.0 °F 30.6 °F 24.1 °F 55% 30.53 in 10.0 mi NNE 15.0 mph - N/A   Overcast
9:52 AM 42.1 °F 34.9 °F 23.0 °F 47% 30.53 in 10.0 mi NE 13.8 mph - N/A   Clear
10:52 AM 44.1 °F 37.4 °F 21.9 °F 42% 30.51 in 10.0 mi NNE 13.8 mph - N/A   Clear
11:52 AM 46.0 °F 40.2 °F 21.9 °F 39% 30.50 in 10.0 mi NNE 12.7 mph 19.6 mph N/A   Clear
12:52 PM 48.0 °F - 23.0 °F 37% 30.47 in 10.0 mi NE 12.7 mph 18.4 mph N/A   Clear
1:52 PM 48.0 °F - 23.0 °F 37% 30.46 in 10.0 mi NNE 10.4 mph - N/A   Clear
2:52 PM 48.0 °F - 21.9 °F 36% 30.46 in 10.0 mi NE 8.1 mph - N/A   Clear
3:52 PM 46.9 °F - 23.0 °F 39% 30.47 in 10.0 mi ENE 9.2 mph - N/A   Clear
4:52 PM 42.1 °F - 23.0 °F 47% 30.47 in 10.0 mi Calm Calm - N/A   Clear
5:52 PM 35.1 °F - 26.1 °F 70% 30.50 in 10.0 mi Calm Calm - N/A   Clear
6:52 PM 33.1 °F - 26.1 °F 75% 30.49 in 10.0 mi Calm Calm - N/A   Clear
7:52 PM 32.0 °F - 26.1 °F 79% 30.49 in 10.0 mi Calm Calm - N/A   Clear
8:52 PM 30.0 °F - 25.0 °F 82% 30.50 in 10.0 mi Calm Calm - N/A   Clear
9:52 PM 30.0 °F - 24.1 °F 79% 30.51 in 10.0 mi Calm Calm - N/A   Clear
10:52 PM 28.9 °F - 24.1 °F 82% 30.48 in 10.0 mi Calm Calm - N/A   Clear
11:52 PM 28.0 °F - 23.0 °F 81% 30.46 in 10.0 mi Calm Calm - N/A   Clear